Weather in Obruchevka

Russia / Chelyabinsk Oblast     52°45′58″N   59°12′42″E
temp.,
°C
wind,
m/s
gust,
m/s
humid.,
%
clouds,
%
prec.,
mm/h
press.,
hPa
HPBL,
m
6 march, sat
sat623:00−3wsw6158376 0.1 1006451
02:00−8wnw46880 0.0 101086
05:00−12w23882 0.0 101221
08:00−13w228981 0.0 101321
11:00−9w238862 0.0 1014108
14:00−7wsw238317 0.0 1014250
17:00−7ssw358812 0.0 101497
20:00−10sw3489100 0.0 101556
7 march, sun
sun723:00−10wsw2284100 0.0 101521
02:00−11sse1184100 0.0 101221
05:00−9ese2291100 0.0 101127
08:00−9ne4696100 1.4 1008200
11:00−7ne5895100 2.7 1005396
14:00−6nne6995100 2.3 1003612
17:00−8n71094100 4.3 1003634
20:00−10nw479589 0.4 1007139
8 march, mon
mon823:00−13nw598689 0.6 1012186
02:00−18wnw348726 0.0 101443
05:00−18sw348913 0.0 101529
08:00−16ssw5119391 0.0 1014292
11:00−12ssw8149195 0.0 1013603
14:00−7sw101588100 0.1 10111052
17:00−5sw91688100 0.2 10101112
20:00−6sw8168798 0.0 1010675
9 march, tue
tue923:00−6sw8178998 0.1 1011687
02:00−7ssw7149196 0.0 1010514
05:00−7ssw9169198 0.1 1009640
08:00−6ssw91691100 0.1 1008641
11:00−5sw81588100 0.1 1008670
14:00−3sw71187100 0.0 1009911
17:00−3sw5896100 0.5 1009505
20:00−6wsw3488100 0.7 101085
10 march, wed
wed1023:00−12wnw338495 0.7 101121
02:00−14wnw2386100 0.0 101122
05:00−15w2287100 0.0 101121
08:00−17w238888 0.0 101122
11:00−12wnw248694 0.0 1010182
14:00−10wnw248511 0.0 1010334
17:00−11sw118749 0.0 101021
20:00−12w349098 0.0 101166